Location: Killam
(52.7910°N, 111.8608°W)
Time: 22:42:39
(UTC+00:00)

SR - Pass Details

Date: 20 February 2026
Orbit: 572 x 849 km, 66.7° (Epoch: 11 March)

Event Time Altitude Azimuth Distance (km) Brightness Sun altitude
Exits shadow 12:45:14 34° 264° (W) 1,003 ? -17.0°
Maximum altitude 12:46:45 50° 318° (NW) 789 ? -16.8°
Drops below altitude 10° 12:51:13 10° 34° (NE) 2,050 ? -16.1°
Sets 12:53:40 0° 40° (NE) 3,010 ? -15.7°
